Погода в Тлядали

Россия / Республика Дагестан     42°07′31″N   46°14′18″E
темп.,
°C
ветер,
м/с
пор.,
м/с
влажн.,
%
обл.,
%
осадки,
мм/ч
давл.,
гПа
погр.,
м
8 марта, пн
пн800:00−10юз449691 1.0 1022216
03:00−12юз339891 1.2 102299
06:00−14ююз119990 0.1 102250
09:00−9ююз239190 0.1 1019171
12:00−6ююз449296 1.2 1017385
15:00−6ююз349398 3.5 1015352
18:00−8юз3396100 3.4 1016151
21:00−10юз3396100 5.1 1018157
9 марта, вт
вт900:00−15зюз129997 0.1 101720
03:00−17юз119893 0.1 101720
06:00−18юз118949 0.0 101720
09:00−10ююз466264 0.0 1017384
12:00−8ююз676015 0.0 1015994
15:00−9ююз567712 0.0 1015853
18:00−14юз339691 0.1 101761
21:00−18ююз227856 0.1 102022
10 марта, ср
ср1000:00−19ююз22680 0.0 102121
03:00−20ююз227618 0.0 102222
06:00−20юз117944 0.0 102320
09:00−12ююз457422 0.0 1023575
12:00−9ююз557025 0.0 1021947
15:00−10ююз457962 0.1 1020827
18:00−14юз349692 0.1 102185
21:00−15юз349889 0.1 102199
11 марта, чт
чт1100:00−12ююз3596100 0.4 1019155
03:00−12ююз349699 1.6 1017179
06:00−12ююз3496100 0.9 1017114
09:00−8ю349299 1.3 1015290
12:00−6ююз4493100 1.1 1013455
15:00−7ю1294100 5.1 1012282
18:00−12св3495100 3.8 1016196
21:00−16св4594100 5.8 1019229
12 марта, пт
пт1200:00−18св4695100 1.7 1019266
03:00−19св5694100 3.2 1020331
06:00−20ссв5694100 0.8 1023317
09:00−18св4589100 1.1 1025372
12:00−15св3386100 0.3 1024454
15:00−13ссв1182100 0.6 1024439
18:00−16с0197100 0.4 102720
21:00−19юз119995 0.8 103020